| time (UTC) | temp C | wind direction | speed KPH | gust KPH | rain 1hr cm | rain 24hr cm | rain mn cm | humidity % | barometer mb |
| 20260507125123 | 12 | 337 | 0.0 | 0.0 | 0.00 | 0.00 | 0.00 | 87 | 1029.6 |
| 20260507124126 | 12 | 355 | 0.0 | 0.0 | 0.00 | 0.00 | 0.00 | 89 | 1029.4 |
| 20260507123224 | 12 | 330 | 0.0 | 0.0 | 0.00 | 0.00 | 0.00 | 91 | 1029.3 |
| 20260507120325 | 11 | 358 | 0.0 | 0.0 | 0.00 | 0.00 | 0.00 | 95 | 1029.2 |
| 20260507114427 | 11 | 360 | 0.0 | 0.0 | 0.00 | 0.00 | 0.00 | 96 | 1029.3 |
| 20260507113426 | 11 | 36 | 0.0 | 0.0 | 0.00 | 0.00 | 0.00 | 96 | 1028.7 |
| 20260507112441 | 11 | 360 | 0.0 | 0.0 | 0.00 | 0.00 | 0.00 | 95 | 1029.1 |
| 20260507111526 | 11 | 360 | 0.0 | 0.0 | 0.00 | 0.00 | 0.00 | 95 | 1029.0 |
| 20260507110624 | 11 | 315 | 0.0 | 0.0 | 0.00 | 0.00 | 0.00 | 96 | 1029.0 |
| 20260507105624 | 11 | 315 | 0.0 | 0.0 | 0.00 | 0.00 | 0.00 | 95 | 1029.1 |
| 20260507104626 | 11 | 360 | 0.0 | 0.0 | 0.00 | 0.00 | 0.00 | 97 | 1028.9 |
| 20260507103625 | 11 | 338 | 0.0 | 0.0 | 0.00 | 0.00 | 0.00 | 96 | 1028.7 |
| 20260507102626 | 11 | 337 | 0.0 | 0.0 | 0.00 | 0.00 | 0.00 | 97 | 1028.5 |
| 20260507101626 | 11 | 360 | 0.0 | 0.0 | 0.00 | 0.00 | 0.00 | 97 | 1028.6 |
| 20260507100725 | 11 | 360 | 0.0 | 0.0 | 0.00 | 0.00 | 0.00 | 95 | 1028.5 |
| 20260507095726 | 11 | 315 | 0.0 | 0.0 | 0.00 | 0.00 | 0.00 | 95 | 1028.6 |
| 20260507093724 | 11 | 360 | 0.0 | 0.0 | 0.00 | 0.00 | 0.00 | 96 | 1028.3 |
| 20260507092726 | 11 | 315 | 0.0 | 0.0 | 0.00 | 0.00 | 0.00 | 95 | 1028.3 |
| 20260507091725 | 11 | 338 | 0.0 | 0.0 | 0.00 | 0.00 | 0.00 | 95 | 1028.3 |
| 20260507090725 | 11 | 315 | 0.0 | 0.0 | 0.00 | 0.00 | 0.00 | 95 | 1028.2 |
| 20260507085824 | 11 | 337 | 0.0 | 0.0 | 0.00 | 0.00 | 0.00 | 96 | 1028.2 |
| 20260507083825 | 12 | 270 | 0.0 | 0.0 | 0.00 | 0.00 | 0.00 | 96 | 1028.2 |
| 20260507082825 | 12 | 270 | 0.0 | 0.0 | 0.00 | 0.00 | 0.00 | 97 | 1028.2 |
| 20260507081925 | 12 | 270 | 0.0 | 0.0 | 0.00 | 0.00 | 0.00 | 97 | 1028.1 |
| 20260507080941 | 12 | 270 | 0.0 | 0.0 | 0.00 | 0.00 | 0.00 | 97 | 1027.7 |
| 20260507080025 | 12 | 270 | 0.0 | 0.0 | 0.00 | 0.00 | 0.00 | 97 | 1027.7 |
| 20260507075924 | 12 | 270 | 0.0 | 0.0 | 0.00 | 0.00 | 0.00 | 97 | 1027.7 |
| 20260507073925 | 12 | 292 | 0.0 | 0.0 | 0.00 | 0.00 | 0.00 | 95 | 1027.5 |
| 20260507072925 | 12 | 292 | 0.0 | 0.0 | 0.00 | 0.00 | 0.00 | 95 | 1027.3 |
| 20260507071925 | 12 | 337 | 0.0 | 0.0 | 0.00 | 0.00 | 0.00 | 96 | 1027.3 |
| 20260507070924 | 12 | 315 | 0.0 | 0.0 | 0.00 | 0.00 | 0.00 | 96 | 1027.3 |
| 20260507065925 | 12 | 286 | 0.0 | 0.0 | 0.00 | 0.00 | 0.00 | 95 | 1027.2 |
| 20260507065024 | 12 | 318 | 0.0 | 0.0 | 0.00 | 0.00 | 0.00 | 96 | 1027.1 |
| 20260507064925 | 12 | 305 | 0.0 | 0.0 | 0.00 | 0.00 | 0.00 | 95 | 1027.1 |
| 20260507063023 | 12 | 320 | 0.0 | 0.0 | 0.00 | 0.00 | 0.00 | 95 | 1026.9 |
| 20260507062026 | 13 | 289 | 0.0 | 0.0 | 0.00 | 0.00 | 0.00 | 96 | 1027.1 |
| 20260507061024 | 13 | 308 | 0.0 | 0.0 | 0.00 | 0.00 | 0.00 | 96 | 1026.6 |
| 20260507060025 | 13 | 339 | 0.0 | 0.0 | 0.00 | 0.00 | 0.00 | 96 | 1025.8 |
| 20260507055025 | 13 | 336 | 0.0 | 0.0 | 0.00 | 0.00 | 0.00 | 96 | 1026.4 |
| 20260507053925 | 13 | 270 | 0.0 | 0.0 | 0.00 | 0.00 | 0.00 | 96 | 1027.1 |
| 20260507052925 | 13 | 270 | 0.0 | 0.0 | 0.00 | 0.00 | 0.00 | 94 | 1027.3 |
| 20260507051925 | 13 | 286 | 0.0 | 0.0 | 0.00 | 0.00 | 0.00 | 93 | 1027.5 |
| 20260507050024 | 13 | 306 | 0.0 | 0.0 | 0.00 | 0.00 | 0.00 | 92 | 1027.2 |
| 20260507045123 | 13 | 241 | 0.0 | 0.0 | 0.00 | 0.00 | 0.00 | 90 | 1027.9 |
| 20260507044125 | 14 | 302 | 0.0 | 0.0 | 0.00 | 0.00 | 0.00 | 88 | 1027.2 |
| 20260507043124 | 15 | 292 | 0.0 | 0.0 | 0.00 | 0.00 | 0.00 | 83 | 1027.0 |
| 20260507042125 | 16 | 319 | 0.0 | 0.0 | 0.00 | 0.00 | 0.00 | 80 | 1027.0 |
| 20260507041125 | 16 | 320 | 0.0 | 0.0 | 0.00 | 0.00 | 0.00 | 79 | 1027.1 |
| 20260507040124 | 17 | 314 | 0.0 | 0.0 | 0.00 | 0.00 | 0.00 | 81 | 1026.7 |
| 20260507034217 | 17 | 321 | 0.0 | 0.0 | 0.00 | 0.00 | 0.00 | 86 | 1026.6 |
| 20260507033216 | 17 | 324 | 0.0 | 0.0 | 0.00 | 0.00 | 0.00 | 88 | 1026.6 |
| 20260507032316 | 17 | 340 | 0.0 | 0.0 | 0.00 | 0.00 | 0.00 | 89 | 1026.3 |
| 20260507031333 | 17 | 202 | 0.0 | 0.0 | 0.00 | 0.00 | 0.00 | 90 | 1025.9 |
| 20260507024417 | 17 | 157 | 0.0 | 0.0 | 0.00 | 0.00 | 0.00 | 89 | 1025.8 |
| 20260507023418 | 17 | 157 | 0.0 | 0.0 | 0.00 | 0.00 | 0.00 | 90 | 1025.7 |
| 20260507021416 | 17 | 112 | 0.0 | 0.0 | 0.00 | 0.00 | 0.00 | 90 | 1025.4 |
| 20260507020418 | 17 | 112 | 0.0 | 0.0 | 0.00 | 0.00 | 0.00 | 90 | 1025.7 |
| 20260507020317 | 17 | 116 | 0.0 | 0.0 | 0.00 | 0.00 | 0.00 | 90 | 1025.7 |
| 20260507014416 | 17 | 202 | 0.0 | 0.0 | 0.00 | 0.00 | 0.00 | 89 | 1025.9 |
| 20260507013418 | 17 | 202 | 0.0 | 0.0 | 0.00 | 0.00 | 0.00 | 88 | 1025.8 |
| 20260507013318 | 17 | 202 | 0.0 | 0.0 | 0.00 | 0.00 | 0.00 | 87 | 1025.9 |
| 20260507012317 | 17 | 202 | 0.0 | 0.0 | 0.00 | 0.00 | 0.00 | 87 | 1025.9 |
| 20260507012217 | 17 | 202 | 0.0 | 0.0 | 0.00 | 0.00 | 0.00 | 88 | 1025.9 |
| 20260507011216 | 17 | 202 | 0.0 | 0.0 | 0.00 | 0.00 | 0.00 | 88 | 1026.1 |
| 20260507010316 | 17 | 202 | 0.0 | 0.0 | 0.00 | 0.00 | 0.00 | 86 | 1026.3 |
| 20260507005317 | 18 | 157 | 0.0 | 0.0 | 0.00 | 0.00 | 0.00 | 84 | 1026.0 |
| 20260507004316 | 18 | 157 | 0.0 | 0.0 | 0.00 | 0.00 | 0.00 | 84 | 1025.8 |
| 20260507004219 | 18 | 157 | 0.0 | 0.0 | 0.00 | 0.00 | 0.00 | 83 | 1025.8 |
| 20260507003216 | 18 | 157 | 0.0 | 0.0 | 0.00 | 0.00 | 0.00 | 84 | 1025.6 |
| 20260507002217 | 18 | 180 | 0.0 | 0.0 | 0.00 | 0.00 | 0.00 | 82 | 1025.6 |
| 20260507001317 | 18 | 169 | 0.0 | 0.0 | 0.00 | 0.00 | 0.00 | 81 | 1025.4 |
| 20260507000320 | 19 | 161 | 0.0 | 0.0 | 0.00 | 0.00 | 0.00 | 81 | 1025.3 |
| 20260506234318 | 20 | 174 | 0.0 | 0.0 | 0.00 | 0.00 | 0.00 | 80 | 1024.9 |
| 20260506233415 | 20 | 178 | 0.0 | 0.0 | 0.00 | 0.00 | 0.00 | 80 | 1024.9 |
| 20260506232417 | 20 | 163 | 0.0 | 0.0 | 0.00 | 0.00 | 0.00 | 79 | 1025.0 |
| 20260506231416 | 20 | 142 | 0.0 | 0.0 | 0.00 | 0.00 | 0.00 | 78 | 1024.9 |
| 20260506230417 | 20 | 161 | 0.0 | 0.0 | 0.00 | 0.00 | 0.00 | 78 | 1024.6 |
| 20260506230318 | 20 | 157 | 0.0 | 0.0 | 0.00 | 0.00 | 0.00 | 78 | 1024.7 |
| 20260506224319 | 20 | 182 | 0.0 | 0.0 | 0.00 | 0.00 | 0.00 | 77 | 1024.8 |
| 20260506223415 | 20 | 169 | 0.0 | 0.0 | 0.00 | 0.00 | 0.00 | 77 | 1024.7 |
| 20260506222432 | 20 | 180 | 0.0 | 0.0 | 0.00 | 0.00 | 0.00 | 76 | 1024.7 |
| 20260506221516 | 20 | 190 | 0.0 | 0.0 | 0.00 | 0.00 | 0.00 | 77 | 1024.9 |
| 20260506220518 | 20 | 172 | 0.0 | 0.0 | 0.00 | 0.00 | 0.00 | 77 | 1024.8 |
| 20260506215516 | 20 | 177 | 0.0 | 0.0 | 0.00 | 0.00 | 0.00 | 76 | 1024.9 |
| 20260506214534 | 20 | 169 | 0.0 | 0.0 | 0.00 | 0.00 | 0.00 | 77 | 1024.9 |
| 20260506213616 | 20 | 177 | 0.0 | 0.0 | 0.00 | 0.00 | 0.00 | 76 | 1024.9 |
| 20260506210715 | 20 | 170 | 0.0 | 0.0 | 0.00 | 0.00 | 0.00 | 77 | 1024.7 |
| 20260506205717 | 20 | 186 | 0.0 | 0.0 | 0.00 | 0.00 | 0.00 | 77 | 1024.7 |
| 20260506204815 | 20 | 170 | 0.0 | 0.0 | 0.00 | 0.00 | 0.00 | 76 | 1024.7 |
| 20260506203817 | 20 | 186 | 0.0 | 0.0 | 0.00 | 0.00 | 0.00 | 77 | 1024.6 |
| 20260506202817 | 20 | 179 | 0.0 | 0.0 | 0.00 | 0.00 | 0.00 | 78 | 1024.6 |
| 20260506201916 | 19 | 163 | 0.0 | 0.0 | 0.00 | 0.00 | 0.00 | 77 | 1024.7 |
| 20260506201815 | 19 | 153 | 0.0 | 0.0 | 0.00 | 0.00 | 0.00 | 78 | 1024.8 |
| 20260506200817 | 19 | 182 | 0.0 | 0.0 | 0.00 | 0.00 | 0.00 | 79 | 1024.6 |
| 20260506195817 | 18 | 174 | 0.0 | 0.0 | 0.00 | 0.00 | 0.00 | 80 | 1024.8 |
| 20260506194832 | 18 | 164 | 0.0 | 0.0 | 0.00 | 0.00 | 0.00 | 79 | 1024.9 |
| 20260506193915 | 18 | 166 | 0.0 | 0.0 | 0.00 | 0.00 | 0.00 | 81 | 1024.8 |
| 20260506192916 | 18 | 180 | 0.0 | 0.0 | 0.00 | 0.00 | 0.00 | 81 | 1025.3 |
| 20260506191934 | 18 | 198 | 0.0 | 0.0 | 0.00 | 0.00 | 0.00 | 81 | 1025.2 |
| 20260506191018 | 18 | 195 | 0.0 | 0.0 | 0.00 | 0.00 | 0.00 | 81 | 1025.6 |
| 20260506190019 | 18 | 182 | 0.0 | 0.0 | 0.00 | 0.00 | 0.00 | 81 | 1025.5 |
| 20260506185017 | 18 | 184 | 0.0 | 0.0 | 0.00 | 0.00 | 0.00 | 81 | 1025.8 |
| 20260506183018 | 18 | 160 | 0.0 | 0.0 | 0.00 | 0.00 | 0.00 | 82 | 1025.5 |
| 20260506182017 | 18 | 184 | 0.0 | 0.0 | 0.00 | 0.00 | 0.00 | 82 | 1025.8 |
| 20260506180915 | 18 | 176 | 0.0 | 0.0 | 0.00 | 0.00 | 0.00 | 81 | 1026.1 |
| 20260506174916 | 18 | 175 | 0.0 | 0.0 | 0.00 | 0.00 | 0.00 | 83 | 1026.2 |
| 20260506172915 | 18 | 170 | 0.0 | 0.0 | 0.00 | 0.00 | 0.00 | 84 | 1026.2 |
| 20260506171917 | 18 | 188 | 0.0 | 0.0 | 0.00 | 0.00 | 0.00 | 85 | 1026.3 |
| 20260506171015 | 17 | 183 | 0.0 | 0.0 | 0.00 | 0.00 | 0.00 | 86 | 1026.3 |
| 20260506170017 | 17 | 182 | 0.0 | 0.0 | 0.00 | 0.00 | 0.00 | 87 | 1026.3 |
| 20260506165917 | 17 | 192 | 0.0 | 0.0 | 0.00 | 0.00 | 0.00 | 87 | 1026.3 |
| 20260506164916 | 17 | 178 | 0.0 | 0.0 | 0.00 | 0.00 | 0.00 | 89 | 1026.3 |
| 20260506163915 | 17 | 170 | 0.0 | 0.0 | 0.00 | 0.00 | 0.00 | 90 | 1026.4 |
| 20260506162916 | 16 | 163 | 0.0 | 0.0 | 0.00 | 0.00 | 0.00 | 91 | 1026.6 |
| 20260506162817 | 16 | 166 | 0.0 | 0.0 | 0.00 | 0.00 | 0.00 | 91 | 1026.6 |
| 20260506161817 | 16 | 164 | 0.0 | 0.0 | 0.00 | 0.00 | 0.00 | 90 | 1026.6 |
| 20260506160817 | 16 | 163 | 0.0 | 0.0 | 0.00 | 0.00 | 0.00 | 91 | 1026.8 |
| 20260506155816 | 16 | 162 | 0.0 | 0.0 | 0.00 | 0.00 | 0.00 | 92 | 1026.8 |
| 20260506151816 | 15 | 175 | 0.0 | 0.0 | 0.00 | 0.00 | 0.00 | 93 | 1027.0 |
| 20260506150816 | 15 | 181 | 0.0 | 0.0 | 0.00 | 0.00 | 0.00 | 92 | 1027.2 |
| 20260506145915 | 15 | 146 | 0.0 | 0.0 | 0.00 | 0.00 | 0.00 | 92 | 1027.4 |
| 20260506144915 | 15 | 114 | 0.0 | 0.0 | 0.00 | 0.00 | 0.00 | 92 | 1027.5 |
| 20260506143917 | 15 | 157 | 0.0 | 0.0 | 0.00 | 0.00 | 0.00 | 91 | 1027.4 |
| 20260506142917 | 15 | 112 | 0.0 | 0.0 | 0.00 | 0.00 | 0.00 | 91 | 1027.5 |
| 20260506141915 | 15 | 112 | 0.0 | 0.0 | 0.00 | 0.00 | 0.00 | 90 | 1027.6 |
| 20260506141817 | 15 | 112 | 0.0 | 0.0 | 0.00 | 0.00 | 0.00 | 89 | 1027.5 |
| 20260506140916 | 15 | 181 | 0.0 | 0.0 | 0.00 | 0.00 | 0.00 | 89 | 1027.5 |
| 20260506135916 | 15 | 154 | 0.0 | 0.0 | 0.00 | 0.00 | 0.00 | 88 | 1027.6 |
| 20260506134917 | 15 | 112 | 0.0 | 0.0 | 0.00 | 0.00 | 0.00 | 86 | 1027.6 |
| 20260506133918 | 15 | 180 | 0.0 | 0.0 | 0.00 | 0.00 | 0.00 | 86 | 1027.7 |
| 20260506133015 | 16 | 183 | 0.0 | 0.0 | 0.00 | 0.00 | 0.00 | 84 | 1027.8 |
| 20260506131031 | 16 | 180 | 0.0 | 0.0 | 0.00 | 0.00 | 0.00 | 82 | 1027.7 |